Temperature
15 15 16 16 13 12 14 15 15 16 16 17 17 17 15 15 16 15 14 14 14 15 15 15 15 15 15 15 15 15 15 15 15 15 15 15 15 15 15 15 15 15 15 15 15 15 15 15 15
15 15 16 15 12 13 13 14 15 15 16 17 17 16 15 14 15 14 14 14 14 14 15 15 15 15 15 15 15 15 15 15 15 15 15 15 15 15 15 15 15 15 15 15 15 15 15 15 15
15 15 15 11 12 13 14 14 14 15 16 17 16 15 15 14 14 14 13 14 14 14 14 14 14 14 15 15 15 15 15 15 15 15 15 15 15 15 15 15 15 15 15 14 15 15 15 14 14
14 15 14 11 12 13 14 14 14 14 16 16 15 14 14 14 13 13 14 14 14 14 14 14 14 14 14 14 14 15 15 15 15 15 15 15 15 15 15 15 15 15 14 14 14 14 14 14 14
14 14 11 11 12 13 13 14 15 14 14 15 15 13 13 13 13 13 13 13 13 14 14 14 14 14 14 14 14 14 14 14 14 14 14 14 14 14 14 14 14 15 14 14 14 14 14 14 14
13 11 10 11 12 13 13 14 14 13 13 14 14 12 12 13 13 13 13 13 13 13 13 13 13 13 14 14 14 14 14 14 14 14 14 14 14 14 14 14 14 14 14 14 14 14 14 14 13
12 9 10 11 12 12 13 14 13 12 12 13 14 12 12 12 12 12 12 13 13 13 13 13 13 13 13 13 13 13 13 13 13 14 14 14 14 14 14 14 14 14 14 14 13 13 13 13 13
13 9 11 11 12 12 13 13 13 13 13 14 14 12 12 12 12 12 12 12 12 12 12 12 12 13 13 13 13 13 13 13 13 13 13 13 13 13 13 13 13 13 14 13 13 13 13 13 13
12 9 10 11 12 12 12 12 12 13 13 13 13 13 13 12 12 12 12 12 12 12 11 12 12 12 12 12 12 12 12 12 13 13 13 13 13 13 13 13 13 13 13 13 13 13 13 13 13
11 8 10 11 11 11 11 11 11 12 11 11 12 12 12 12 11 11 11 11 11 11 11 11 11 11 11 12 12 12 12 12 12 12 12 12 12 12 12 12 12 13 13 12 12 12 12 12 12
10 9 10 11 11 11 11 11 11 11 10 11 11 12 11 11 11 11 11 11 11 11 11 11 11 11 11 11 11 11 11 11 12 12 12 12 12 12 12 12 12 12 12 12 12 12 12 12 12
10 10 10 10 11 11 10 10 10 10 11 11 11 11 11 11 11 11 10 10 10 10 10 10 10 10 10 11 11 11 11 11 11 11 11 11 11 11 12 12 12 12 12 12 12 12 12 12 12
9 9 10 10 10 10 10 9 9 10 11 11 11 11 11 10 10 10 10 10 10 10 10 10 10 10 10 10 10 10 11 11 11 11 11 11 11 11 11 11 11 11 11 11 11 11 11 11 11
9 9 9 9 9 9 9 9 9 10 10 10 10 10 10 10 10 10 10 10 10 10 10 10 10 10 10 10 10 10 10 10 10 10 10 10 10 10 10 10 11 11 11 11 11 11 11 11 11
9 8 8 9 9 9 9 8 8 10 10 9 9 9 9 10 10 9 9 9 9 9 9 9 9 9 9 9 9 9 9 9 9 10 10 10 10 10 10 10 10 10 10 10 10 11 10 10 10
8 7 7 8 9 9 8 7 8 9 9 8 9 9 9 9 9 9 9 9 9 9 9 9 9 9 9 9 9 9 9 9 9 9 9 9 9 9 9 9 10 10 10 10 10 10 10 10 10
6 6 7 8 8 8 8 7 7 9 8 8 8 8 8 8 8 8 8 8 8 8 8 8 8 8 8 8 8 8 8 8 8 8 8 9 9 9 9 9 9 9 9 9 9 9 9 9 9
6 6 7 7 8 8 6 6 7 8 8 7 7 7 8 8 8 8 8 8 8 8 8 8 8 8 8 8 8 8 8 8 8 8 8 8 8 8 8 8 9 9 9 9 9 9 9 9 9
7 6 6 6 7 7 6 6 7 7 6 6 6 6 7 7 7 7 7 7 7 7 7 7 7 7 7 7 7 7 7 7 7 7 7 7 7 8 8 8 8 8 8 8 8 8 8 8 8
6 6 5 6 7 7 6 6 6 6 6 6 6 6 6 6 6 7 7 7 7 7 7 7 7 7 7 7 6 7 7 7 7 7 7 7 7 7 7 7 7 7 8 8 8 8 8 8 7
6 5 5 6 6 6 5 5 6 6 6 6 6 6 6 5 5 6 6 6 6 6 6 6 6 6 6 6 6 6 6 6 6 6 7 7 7 7 7 7 7 7 7 7 7 7 7 7 7
5 6 6 6 5 4 5 4 5 5 5 5 5 5 5 5 5 5 5 6 6 6 6 6 6 6 6 6 5 5 5 5 5 6 6 6 6 6 6 6 6 6 7 7 7 7 7 7 6
5 6 5 5 4 3 4 4 4 4 5 4 4 4 5 5 5 5 5 5 5 5 5 5 5 5 5 5 5 5 5 5 5 5 5 6 6 6 6 6 6 6 6 6 6 6 6 6 6
5 5 4 3 3 4 4 4 4 3 4 4 4 4 4 4 4 4 4 4 5 5 5 5 5 5 5 5 5 5 4 4 4 4 5 5 5 5 5 5 5 5 5 6 6 6 6 6 6
4 3 3 3 3 3 4 4 4 4 4 4 3 3 4 4 4 4 4 4 4 4 4 4 4 4 4 4 4 4 4 4 4 4 4 4 5 5 4 4 4 4 5 5 5 5 5 5 5
3 3 3 3 3 3 3 3 4 4 4 4 4 3 3 3 3 3 3 3 3 3 3 3 4 4 4 4 4 4 4 4 4 4 4 4 4 4 4 4 4 4 4 4 4 5 5 5 5
3 2 3 2 1 2 3 3 3 4 3 3 2 2 2 3 3 3 3 3 3 3 3 3 3 4 4 4 3 3 3 3 3 3 3 3 3 3 3 3 3 3 4 4 4 4 4 4 4
3 2 1 1 2 3 3 2 3 3 3 2 1 2 2 2 2 2 2 2 3 3 3 3 3 3 3 3 3 3 3 3 3 3 3 3 3 3 3 3 3 3 3 3 3 3 3 4 4
3 2 1 1 1 2 2 3 3 2 2 1 1 2 2 2 2 2 2 2 2 2 2 2 2 2 3 3 3 3 3 2 2 2 2 2 2 2 2 2 2 2 2 2 2 3 3 3 3
2 2 1 1 1 0 1 2 3 2 2 1 1 2 2 2 2 2 2 2 2 2 2 2 2 2 2 2 2 2 2 2 2 2 2 2 2 2 2 2 2 2 2 2 2 2 2 2 3
Wind_Speed
10 7 2 4 4 3 3 4 3 1 1 1 1 5 6 4 2 4 2 2 4 5 5 6 5 6 6 6 6 6 6 6 6 6 6 6 6 6 7 7 7 7 8 8 8 9 9 9 9
6 2 4 4 4 3 5 4 3 3 2 1 3 4 5 3 2 4 1 1 6 7 6 5 5 6 6 6 6 6 5 5 5 5 5 5 5 6 6 6 6 6 7 7 8 8 8 8 9
4 2 4 4 4 6 6 4 5 3 1 2 3 4 3 3 2 2 1 3 6 6 6 5 6 5 5 5 5 5 4 4 4 4 5 5 5 5 5 5 6 6 6 6 7 7 7 8 8
3 4 4 3 4 4 5 4 3 1 3 3 3 3 2 2 2 2 2 5 7 5 5 6 6 5 5 4 4 4 3 3 3 3 4 4 4 4 4 5 5 6 6 6 6 6 6 7 7
4 4 3 1 4 3 3 3 2 2 1 1 3 3 1 2 1 4 5 6 6 4 4 5 6 6 5 5 4 3 2 2 2 3 3 3 4 4 4 4 5 5 5 5 5 5 5 6 6
3 4 3 4 5 3 2 2 1 1 1 1 3 3 1 1 2 4 5 5 5 5 4 5 5 4 4 4 3 3 2 1 1 2 3 3 3 3 3 3 4 4 5 4 4 4 4 5 5
4 4 4 5 4 3 3 1 2 2 1 1 3 4 2 1 1 4 5 5 4 5 4 4 4 4 3 2 2 2 2 1 0 1 2 3 3 3 3 2 3 3 4 4 4 4 4 3 4
4 4 2 3 4 4 2 1 1 2 2 1 3 5 3 3 0 4 5 5 4 4 3 3 4 3 3 1 1 1 1 1 1 1 2 2 3 3 3 2 2 3 4 4 4 4 3 3 3
3 3 3 4 5 3 0 1 2 1 1 1 1 2 3 3 3 5 4 4 3 3 2 2 3 3 2 2 1 1 0 0 0 1 1 2 2 3 3 3 2 3 3 3 3 3 3 3 3
4 4 5 3 3 2 1 0 1 1 1 1 2 2 1 3 4 3 2 1 1 1 1 1 1 1 2 1 2 1 0 0 0 1 2 2 2 3 3 3 3 3 3 3 3 3 3 2 2
3 5 3 2 1 1 1 1 1 1 3 4 4 3 2 2 2 2 1 1 1 1 0 1 1 1 1 0 1 1 0 0 1 1 2 2 2 2 2 3 3 3 3 2 2 2 2 2 2
1 2 2 2 0 1 2 2 1 4 6 4 5 5 4 2 2 2 1 1 1 1 1 1 1 0 0 0 0 1 0 0 1 1 2 2 1 2 2 2 3 3 2 1 2 2 2 2 3
2 2 1 2 1 2 2 3 3 6 6 2 2 3 4 3 2 1 1 1 1 1 2 1 1 1 1 0 1 1 1 2 2 2 3 3 2 2 2 3 3 3 3 2 2 2 2 2 3
2 2 3 3 3 2 2 4 2 7 3 2 3 3 3 3 3 1 1 1 2 2 2 2 2 1 1 1 2 2 2 2 2 2 3 3 3 2 3 3 3 3 3 4 3 3 2 2 2
0 2 4 4 3 2 1 4 5 7 2 2 3 3 2 2 2 2 3 3 2 3 2 2 2 1 2 2 2 2 2 2 2 2 3 3 3 3 3 3 3 3 4 3 3 2 2 2 1
1 1 3 4 2 2 2 6 6 4 3 2 3 2 2 2 3 3 3 3 2 2 2 2 2 2 2 3 3 2 2 2 2 3 3 3 3 3 3 3 3 4 4 3 3 2 2 2 2
2 1 4 4 2 1 3 6 5 3 3 4 3 3 3 3 3 3 3 2 2 2 2 2 2 3 3 3 2 2 2 3 2 2 3 3 3 3 3 3 3 4 3 3 3 2 2 2 2
3 3 3 4 3 1 4 8 7 4 4 5 4 4 3 4 5 3 2 2 1 2 2 2 2 3 3 2 2 2 2 2 2 2 3 3 3 3 2 3 3 3 2 3 2 3 2 2 2
3 3 5 5 3 3 6 9 9 5 3 4 5 4 4 5 5 3 2 1 1 1 1 2 2 3 2 1 2 2 3 3 3 3 3 4 4 3 3 3 3 3 3 3 3 2 2 2 1
3 3 4 5 3 3 5 9 8 5 4 4 5 5 5 4 3 3 2 1 1 2 2 3 3 3 3 3 3 3 3 3 3 3 4 4 4 4 4 4 3 3 3 3 3 2 2 2 2
3 4 4 4 5 3 3 6 4 3 2 2 3 2 2 2 3 3 3 3 2 3 3 3 4 4 3 3 2 2 1 2 2 2 3 4 4 4 5 5 4 4 4 4 4 4 3 3 3
4 4 4 3 2 4 0 4 6 4 3 3 3 2 2 2 2 2 3 3 3 4 4 3 3 3 3 2 3 3 3 3 4 3 3 3 4 4 4 5 4 4 4 4 5 4 4 4 4
4 3 2 1 1 3 2 3 7 2 3 4 3 3 3 2 2 2 3 3 4 4 3 3 3 3 3 3 3 3 3 3 3 2 2 3 2 3 4 4 4 4 4 4 4 4 4 4 5
2 3 3 3 2 3 4 5 6 3 5 3 3 3 3 3 2 2 3 3 4 4 4 3 3 4 3 3 3 3 4 4 3 2 3 2 2 2 3 3 3 3 3 4 4 4 5 4 5
3 4 4 4 2 5 2 4 7 5 3 3 3 3 3 2 2 3 4 4 5 5 5 4 4 5 4 3 3 4 4 4 3 3 3 3 2 2 3 2 3 3 3 4 4 4 5 5 5
0 4 4 3 4 5 3 5 6 3 2 1 1 1 2 3 3 3 3 4 5 6 6 5 5 5 4 4 4 4 4 3 3 3 3 3 3 3 3 3 3 3 3 3 3 3 4 4 5
2 2 3 4 1 4 5 6 6 2 3 2 2 2 3 4 4 4 4 4 5 5 6 5 5 5 4 4 4 4 4 3 3 3 2 3 2 2 2 2 3 3 3 3 3 3 4 4 4
2 3 4 3 1 4 6 5 4 5 5 3 3 3 4 4 5 5 5 5 5 5 5 4 4 5 4 4 3 3 3 4 3 2 3 3 2 2 2 2 2 2 2 3 3 3 3 3 4
1 1 2 2 3 3 4 6 3 5 4 3 3 3 3 4 5 6 6 6 6 5 4 4 4 4 4 3 2 2 3 3 2 2 2 2 2 2 2 2 2 2 2 3 3 3 3 3 3
3 4 4 3 4 3 3 7 4 2 2 2 3 3 4 4 4 5 6 6 6 5 5 4 4 4 4 3 2 2 1 1 1 1 1 1 2 2 2 2 2 2 2 3 3 3 3 3 3
Wind_Direction
328 335 50 60 65 63 230 241 220 184 334 290 80 102 111 107 120 145 170 125 115 124 126 127 117 106 99 93 91 87 84 92 94 94 95 94 102 107 108 113 118 120 124 126 128 127 125 123 120
331 354 58 67 113 180 239 231 205 216 214 345 44 76 84 84 69 101 110 139 118 118 117 125 116 108 102 96 92 91 87 89 98 98 97 102 104 111 110 112 117 122 124 130 131 130 129 128 127
334 50 86 92 153 191 206 215 205 227 21 54 47 45 89 108 103 132 225 143 110 106 108 116 114 111 106 102 97 93 91 88 95 103 104 106 106 109 115 120 121 118 120 122 130 135 134 132 131
57 53 63 99 210 225 203 208 183 121 14 36 95 63 49 40 150 173 124 119 109 100 100 109 110 109 106 103 100 99 98 100 99 114 115 110 104 109 112 124 132 131 124 122 126 134 139 136 136
62 86 94 214 236 243 225 220 173 146 127 359 90 109 62 337 89 105 100 111 111 103 97 110 111 113 101 89 85 92 101 112 119 120 131 126 115 114 118 124 135 140 137 138 133 136 143 147 146
65 79 125 210 232 246 254 250 159 87 133 22 91 115 193 305 73 90 94 102 110 117 100 108 107 104 111 102 93 76 68 88 140 136 146 142 139 132 126 131 141 145 153 155 153 143 145 158 160
118 120 175 196 208 231 253 274 134 154 160 224 146 137 216 294 59 96 89 93 97 105 99 84 93 94 89 109 115 94 73 49 53 175 167 151 152 153 149 140 156 157 160 167 165 157 158 161 173
129 121 176 205 192 228 284 41 88 136 202 266 126 151 203 232 149 81 76 78 85 84 86 80 65 63 62 68 132 101 92 54 0 228 200 180 169 171 168 159 167 173 171 173 178 177 170 171 170
101 102 201 209 189 213 261 47 329 328 128 0 28 169 205 160 106 76 60 46 57 63 49 82 76 58 46 44 51 70 115 114 13 213 205 202 179 172 162 160 166 177 178 182 187 191 184 172 170
104 175 214 218 186 185 216 217 272 0 338 327 343 359 91 109 112 105 99 67 31 8 11 43 82 80 51 22 21 55 62 271 279 215 197 201 178 178 172 172 174 172 181 188 196 210 192 173 166
153 195 212 238 197 178 212 276 278 175 250 232 225 217 162 118 122 130 149 164 209 266 300 354 33 112 94 46 16 24 39 249 241 222 203 191 169 181 178 162 167 173 181 183 198 220 195 179 184
168 241 218 233 256 207 226 242 268 233 235 239 224 182 158 151 176 181 190 238 247 272 291 308 322 219 211 74 305 307 230 251 258 267 208 174 183 208 207 197 189 185 188 199 208 213 200 201 203
204 249 261 253 274 234 229 238 241 261 260 242 165 150 162 183 212 215 199 219 241 262 274 264 258 245 268 308 289 295 260 237 248 249 231 198 200 214 222 213 204 202 206 205 201 200 194 198 208
209 263 279 278 270 254 220 263 241 261 247 169 165 185 198 190 196 215 271 272 261 263 260 264 251 237 240 255 260 272 280 257 238 240 245 219 203 212 218 218 215 214 214 214 205 200 203 217 215
206 324 314 267 243 229 141 293 239 250 196 179 215 209 219 228 209 211 230 235 240 254 262 257 258 258 250 252 251 267 277 272 258 258 252 240 214 214 222 207 216 217 212 215 214 204 195 228 233
29 9 293 279 231 222 168 260 262 245 172 208 231 226 233 249 239 230 223 228 236 243 265 265 275 279 264 256 252 255 280 267 263 269 257 256 229 219 224 208 215 221 208 202 212 209 211 231 238
36 242 250 285 254 210 202 251 272 266 199 229 235 230 236 261 270 255 233 227 245 240 243 264 269 267 270 273 269 265 273 257 254 262 262 266 243 218 221 216 220 211 205 205 217 221 205 225 240
230 232 243 253 279 265 249 258 273 279 230 237 241 242 239 247 262 264 245 223 234 250 247 250 267 266 275 283 296 288 277 266 260 254 266 262 249 230 219 221 224 215 205 216 210 224 227 220 230
205 226 260 266 287 296 255 267 276 278 261 248 252 254 253 256 263 276 293 277 268 292 287 266 270 266 268 266 261 265 262 257 253 253 257 257 246 231 213 217 215 216 212 212 206 218 222 232 192
232 252 273 290 306 290 278 282 278 258 244 233 235 245 249 280 311 311 317 314 270 264 270 275 278 268 251 246 240 241 245 245 241 248 261 254 239 225 216 202 215 223 220 213 207 204 230 241 210
253 229 245 272 320 315 311 301 273 275 248 268 262 251 269 277 287 303 322 316 294 278 270 273 277 274 261 263 268 273 282 284 262 255 248 249 237 230 221 215 211 218 214 214 217 209 216 234 256
263 244 248 263 319 288 358 287 274 266 284 292 297 304 303 308 304 303 315 318 307 285 279 274 276 280 276 254 247 233 241 255 259 254 252 254 236 231 228 219 212 218 224 220 224 230 220 217 236
245 286 279 258 212 290 248 223 280 291 283 291 298 297 296 295 302 307 311 303 309 306 290 277 281 279 273 252 241 239 243 254 269 271 268 252 237 231 223 220 211 219 228 229 228 231 226 227 231
291 17 31 52 79 274 226 196 274 253 253 276 287 302 304 310 312 316 325 324 318 319 317 294 279 272 269 262 255 249 253 256 267 265 264 256 239 230 219 220 216 226 230 234 236 237 226 234 238
50 71 21 358 346 257 249 210 251 257 253 229 243 267 298 319 330 327 331 323 318 318 316 312 285 273 271 264 258 254 251 243 248 251 260 262 245 249 227 226 225 236 236 234 237 235 230 230 227
234 135 153 215 250 286 296 247 261 273 298 274 230 260 330 339 339 322 312 309 310 311 307 304 297 274 266 263 260 255 253 239 247 250 261 251 244 237 227 228 230 238 245 247 240 239 239 236 229
140 177 168 148 262 278 276 286 303 304 337 10 18 10 345 334 332 324 317 314 306 302 299 294 297 292 281 270 258 246 245 247 254 257 256 249 251 251 227 235 241 237 241 240 237 241 241 239 237
140 140 98 133 200 271 289 279 274 293 296 320 337 334 326 330 331 329 327 319 311 305 304 302 294 293 282 277 256 263 245 247 244 242 241 239 245 248 236 239 241 254 256 246 242 247 248 242 246
149 131 138 153 181 200 275 274 250 254 260 268 285 303 311 318 323 329 326 321 319 321 318 314 311 312 304 288 279 273 257 244 239 246 247 224 224 229 230 236 239 251 262 255 243 249 251 251 265
191 185 159 174 239 215 237 272 288 285 280 276 288 303 308 310 318 324 326 328 329 327 323 315 313 315 310 291 291 293 279 238 233 247 254 235 227 234 233 245 250 256 267 263 256 258 264 257 263
Height
1503 1504 1505 1507 1511 1520 1519 1512 1507 1505 1505 1503 1503 1502 1504 1508 1511 1517 1514 1512 1512 1513 1514 1514 1515 1516 1516 1516 1517 1517 1517 1518 1518 1519 1519 1520 1520 1521 1521 1521 1522 1522 1522 1522 1523 1523 1523 1524 1524
1503 1504 1506 1507 1515 1524 1518 1509 1507 1504 1503 1503 1503 1503 1504 1507 1509 1511 1510 1511 1512 1512 1513 1513 1514 1515 1515 1516 1516 1516 1517 1517 1518 1518 1519 1519 1519 1520 1520 1520 1521 1521 1521 1522 1522 1522 1523 1523 1524
1502 1503 1506 1509 1516 1518 1513 1506 1504 1502 1503 1503 1504 1504 1506 1508 1509 1510 1510 1510 1511 1512 1512 1513 1513 1514 1515 1515 1515 1516 1516 1516 1517 1517 1517 1518 1518 1519 1519 1519 1519 1520 1520 1521 1521 1522 1522 1522 1523
1502 1504 1506 1512 1513 1510 1506 1503 1502 1502 1502 1502 1503 1506 1507 1510 1510 1510 1510 1510 1510 1510 1511 1512 1513 1513 1513 1514 1514 1514 1515 1515 1515 1516 1516 1517 1517 1517 1518 1518 1518 1519 1519 1520 1520 1520 1521 1521 1522
1501 1503 1509 1515 1511 1506 1503 1501 1501 1502 1503 1503 1504 1506 1507 1509 1509 1509 1509 1509 1509 1509 1510 1511 1511 1512 1512 1512 1512 1513 1513 1514 1514 1514 1515 1515 1515 1516 1516 1517 1517 1517 1518 1518 1519 1519 1520 1520 1520
1501 1502 1513 1516 1509 1504 1502 1501 1502 1502 1503 1503 1504 1506 1507 1508 1508 1507 1508 1508 1509 1509 1509 1510 1510 1510 1511 1511 1511 1511 1512 1512 1512 1513 1513 1513 1514 1514 1515 1515 1515 1516 1516 1517 1517 1517 1518 1519 1519
1502 1506 1510 1510 1508 1505 1503 1501 1502 1502 1502 1503 1503 1505 1506 1506 1507 1507 1507 1507 1508 1508 1508 1508 1509 1509 1509 1509 1509 1509 1510 1510 1510 1511 1511 1511 1512 1512 1513 1513 1514 1514 1515 1515 1516 1516 1516 1517 1517
1499 1505 1507 1508 1506 1504 1501 1501 1502 1502 1502 1503 1503 1503 1503 1505 1505 1506 1506 1506 1506 1507 1507 1507 1507 1507 1507 1507 1508 1508 1508 1508 1508 1509 1509 1509 1510 1510 1511 1511 1512 1512 1513 1513 1514 1514 1514 1515 1515
1499 1507 1509 1505 1503 1502 1501 1501 1501 1502 1502 1502 1502 1501 1502 1503 1503 1504 1504 1504 1505 1505 1505 1505 1505 1505 1505 1505 1505 1505 1505 1506 1506 1506 1507 1507 1507 1508 1509 1509 1510 1510 1511 1511 1512 1512 1512 1513 1513
1499 1507 1504 1501 1500 1500 1500 1500 1500 1501 1500 1500 1500 1500 1500 1500 1501 1501 1501 1501 1502 1502 1503 1503 1503 1503 1503 1503 1502 1503 1503 1503 1503 1503 1504 1504 1505 1505 1506 1507 1507 1508 1509 1509 1509 1510 1510 1511 1511
1498 1501 1499 1499 1499 1498 1499 1499 1499 1499 1499 1498 1498 1498 1498 1498 1499 1499 1499 1500 1500 1500 1500 1501 1501 1501 1500 1500 1500 1500 1500 1500 1501 1501 1501 1502 1502 1503 1503 1504 1505 1505 1506 1507 1507 1508 1508 1508 1508
1498 1498 1498 1498 1498 1498 1498 1498 1498 1498 1497 1497 1496 1496 1496 1496 1497 1497 1497 1498 1498 1499 1498 1498 1498 1498 1498 1498 1497 1497 1497 1497 1498 1498 1499 1499 1499 1499 1500 1500 1501 1502 1503 1504 1504 1505 1505 1505 1506
1498 1498 1498 1497 1497 1497 1496 1496 1497 1495 1495 1495 1494 1494 1494 1495 1495 1495 1496 1496 1496 1496 1496 1496 1496 1495 1495 1495 1495 1494 1494 1494 1494 1495 1495 1496 1496 1496 1496 1497 1498 1499 1500 1500 1501 1502 1502 1502 1503
1497 1497 1497 1496 1495 1495 1495 1494 1495 1492 1492 1492 1492 1492 1492 1492 1492 1493 1493 1493 1493 1493 1494 1493 1493 1493 1493 1492 1491 1491 1491 1491 1491 1491 1492 1492 1493 1493 1493 1494 1495 1495 1496 1497 1498 1498 1499 1499 1499
1497 1498 1497 1495 1493 1493 1494 1494 1492 1490 1491 1490 1490 1490 1490 1490 1490 1490 1490 1490 1490 1490 1490 1490 1490 1490 1489 1489 1488 1488 1488 1488 1487 1488 1488 1489 1489 1490 1490 1490 1491 1492 1493 1494 1494 1494 1495 1496 1496
1498 1500 1501 1494 1492 1492 1496 1495 1489 1488 1488 1488 1488 1488 1488 1488 1488 1488 1488 1488 1488 1487 1487 1487 1487 1487 1486 1486 1485 1484 1484 1484 1484 1484 1485 1485 1485 1486 1486 1487 1488 1489 1489 1490 1490 1490 1491 1491 1492
1502 1504 1501 1496 1492 1492 1494 1493 1488 1487 1486 1486 1486 1485 1485 1485 1484 1484 1484 1484 1485 1484 1484 1484 1483 1483 1482 1482 1481 1481 1481 1481 1480 1481 1481 1481 1482 1482 1483 1483 1484 1484 1485 1486 1486 1486 1487 1487 1488
1503 1504 1500 1498 1493 1492 1494 1490 1486 1485 1484 1483 1483 1482 1482 1481 1481 1481 1481 1481 1481 1481 1481 1480 1480 1480 1479 1479 1478 1477 1477 1477 1476 1476 1477 1477 1478 1478 1479 1479 1479 1480 1481 1482 1482 1482 1483 1484 1484
1498 1500 1500 1497 1493 1493 1491 1488 1484 1483 1482 1481 1480 1479 1478 1478 1478 1479 1478 1478 1478 1478 1477 1477 1476 1476 1475 1474 1474 1473 1472 1472 1472 1472 1472 1473 1473 1474 1474 1475 1475 1475 1476 1477 1478 1478 1479 1479 1480
1497 1499 1500 1495 1492 1492 1491 1487 1482 1480 1479 1477 1477 1476 1476 1476 1475 1475 1475 1475 1474 1474 1474 1473 1472 1472 1472 1471 1470 1470 1469 1468 1468 1468 1468 1468 1469 1469 1470 1470 1470 1471 1471 1472 1473 1474 1474 1474 1476
1497 1498 1498 1497 1494 1492 1492 1487 1481 1478 1476 1475 1475 1474 1474 1474 1473 1472 1472 1472 1471 1471 1470 1470 1469 1469 1468 1467 1467 1466 1466 1465 1464 1463 1463 1464 1465 1465 1466 1466 1466 1467 1467 1467 1468 1469 1469 1469 1471
1498 1494 1494 1494 1498 1500 1496 1496 1482 1478 1476 1474 1473 1472 1472 1471 1471 1470 1470 1469 1468 1468 1467 1467 1466 1465 1464 1464 1463 1462 1461 1459 1459 1458 1458 1460 1461 1461 1461 1462 1462 1462 1463 1463 1464 1465 1465 1466 1466
1496 1493 1494 1494 1498 1502 1498 1500 1484 1479 1476 1473 1472 1471 1470 1470 1469 1468 1467 1467 1466 1465 1464 1463 1462 1461 1461 1460 1459 1458 1457 1456 1455 1455 1455 1455 1456 1456 1457 1457 1457 1458 1458 1459 1459 1460 1461 1461 1461
1494 1494 1496 1499 1502 1503 1495 1497 1486 1481 1475 1472 1471 1470 1469 1468 1467 1466 1465 1464 1463 1462 1461 1460 1459 1458 1458 1456 1455 1454 1453 1452 1451 1451 1450 1450 1450 1451 1452 1452 1453 1453 1453 1454 1454 1455 1456 1456 1457
1496 1502 1509 1508 1509 1501 1492 1491 1484 1474 1471 1470 1470 1469 1467 1466 1465 1463 1462 1461 1460 1459 1457 1456 1455 1454 1453 1453 1452 1451 1450 1448 1447 1447 1447 1446 1446 1446 1447 1447 1448 1448 1449 1449 1450 1450 1451 1451 1452
1499 1501 1511 1513 1512 1502 1493 1489 1479 1473 1470 1469 1468 1468 1466 1464 1463 1462 1460 1459 1457 1456 1454 1453 1452 1451 1450 1449 1448 1447 1447 1445 1445 1444 1443 1443 1442 1443 1443 1444 1444 1444 1444 1445 1445 1445 1446 1447 1447
1499 1503 1503 1511 1514 1510 1496 1487 1477 1472 1470 1468 1468 1466 1465 1463 1462 1460 1459 1457 1455 1453 1451 1449 1448 1447 1447 1446 1445 1444 1444 1443 1442 1441 1440 1440 1439 1439 1440 1440 1440 1440 1440 1440 1440 1441 1442 1442 1442
1498 1501 1507 1510 1510 1504 1496 1491 1482 1473 1470 1469 1468 1466 1465 1463 1461 1459 1457 1455 1452 1451 1449 1447 1446 1444 1443 1443 1442 1441 1440 1439 1438 1437 1437 1436 1436 1436 1435 1436 1436 1435 1436 1436 1436 1437 1437 1437 1437
1500 1502 1504 1509 1509 1507 1502 1489 1475 1473 1470 1469 1468 1466 1465 1463 1460 1458 1456 1453 1450 1448 1446 1444 1443 1442 1440 1439 1438 1437 1436 1436 1435 1434 1433 1433 1432 1432 1432 1432 1432 1432 1432 1432 1432 1432 1432 1432 1432
1498 1499 1503 1507 1508 1507 1505 1490 1472 1470 1468 1468 1467 1466 1464 1462 1460 1457 1454 1451 1448 1446 1444 1442 1440 1439 1438 1436 1435 1434 1433 1432 1431 1431 1430 1430 1429 1429 1429 1428 1428 1428 1428 1428 1428 1428 1428 1428 1428